Regional Weather Roundup
Issued by NWS

Home | Current Version | Previous Version | Graphics & Text | Print | Product List | Glossary On
Versions: 1 2 3 4 5 6 7 8 9 10 11 12 13 14 15 16 17 18 19 20 21 22 23 24 25 26 27 28 29 30 31 32 33 34 35 36 37 38 39 40 41 42 43 44 45 46 47 48 49 50
000
ASUS44 KMEG 012210
RWRTN
TENNESSEE HOURLY STATE WEATHER ROUNDUP
NATIONAL WEATHER SERVICE MEMPHIS TN
400 PM CST SUN FEB 01 2015

TNZ002-004-019-021-049-052-054-088>092-012300-
WEST TENNESSEE

CITY           SKY/WX    TMP DP  RH WIND       PRES   REMARKS
MEMPHIS INTL   LGT RAIN  53  49  86 W12G20    29.73R
NWS MEMPHIS      N/A     54 N/A N/A MISG        N/A
JACKSON        CLOUDY    54  52  93 W7        29.68S FOG
DYERSBURG      CLOUDY    52  39  62 W12       29.70R
UNION CITY     CLOUDY    50  50 100 W7        29.66S
PARIS          CLOUDY    50  50 100 W10       29.66S
LEXINGTON      CLOUDY    54  54 100 S13       29.66S
SAVANNAH       CLOUDY    54  54 100 S14       29.71R
$$

TNZ008-025-027-028-033-062-065-066-012300-
NORTH MIDDLE TENNESSEE

CITY           SKY/WX    TMP DP  RH WIND       PRES   REMARKS
NASHVILLE      LGT RAIN  54  52  93 S21       29.68F
CLARKSVILLE    LGT RAIN  53  51  93 SW6       29.65R FOG
SMYRNA         LGT RAIN  54  52  94 S10       29.70F FOG
COOKEVILLE     CLOUDY    50  48  93 S8        29.72F
CROSSVILLE     CLOUDY    47  44  90 S10G29    29.77F
$$

TNZ061-075-076-078-094-096-097-012300-
SOUTH MIDDLE TENNESSEE

CITY           SKY/WX    TMP DP  RH WIND       PRES   REMARKS
FAYETTEVILLE   CLOUDY    52  52 100 MISG      29.75F
TULLAHOMA        N/A     52  50  93 S12       29.75F
WINCHESTER     CLOUDY    52  50  93 S17       29.77F
MCMINNVILLE    CLOUDY    54  54 100 S10       29.73F
COLUMBIA       CLOUDY   N/A N/A N/A S14       29.68F
SHELBYVILLE    CLOUDY    54  54 100 S15       29.73F
$$

TNZ017-018-042-046-047-012300-
NORTHEAST TENNESSEE

CITY           SKY/WX    TMP DP  RH WIND       PRES   REMARKS
TRI CITIES     LGT RAIN  50  41  71 S7        29.85F
ELIZABETHTON   LGT RAIN  48  37  66 SE6       29.88F
$$

TNZ012-013-036-069-073-074-012300-
CENTRAL EAST TENNESSEE

CITY           SKY/WX    TMP DP  RH WIND       PRES   REMARKS
KNOXVILLE      LGT RAIN  44  42  93 N3        29.82F
OAK RIDGE      CLOUDY    44  42  93 CALM      29.84F
GATLINBURG     CLOUDY    45  41  87 CALM      29.81F
MORRISTOWN     CLOUDY    45  37  76 E6        29.83F
$$

TNZ083-085-099-012300-
SOUTHEAST TENNESSEE

CITY           SKY/WX    TMP DP  RH WIND       PRES   REMARKS
CHATTANOOGA    CLOUDY    48  47  96 CALM      29.86F
$$

SKY/WX REPORTED AS FAIR MEANS FEW OR NO CLOUDS BELOW
12 THOUSAND FEET.




USA.gov is the U.S. government's official web portal to all federal, state and local government web resources and services.